Location: Peterborough
(44.3091°N, 78.3197°W)
Time: 23:33:16
(UTC-04:00)

SR - Pass Details

Date: 29 March 2023
Orbit: 581 x 867 km, 66.7° (Epoch: 02 June)

Event Time Altitude Azimuth Distance (km) Brightness Sun altitude
Rises 10:57:56 0° 329° (NNW) 2,816 ? 38.8°
Reaches altitude 10° 11:00:09 10° 332° (NNW) 1,925 ? 39.1°
Maximum altitude 11:04:26 71° 56° (ENE) 647 ? 39.7°
Drops below altitude 10° 11:08:57 10° 142° (SE) 2,020 ? 40.2°
Sets 11:11:18 0° 144° (SE) 2,968 ? 40.5°
